Showing default

BRO-6, 52422

Orbit data source: Space-Track

BRO-6, 52422 is a payload satellite owned by Unseen Labs (FR) in SSO that was launched on Mon, 02 May 2022 UTC via an ELECTRON launch vehicle from the Rocket Lab Launch Complex (RLLC). Payload-class satellites include a variety of spacecraft equipped with specific instruments for various scientific and technological missions. These include communications satellites like Starlink; space stations such as the ISS; scientific satellites like the Hubble; Earth observation satellites from companies like Planet Labs, Umbra, and HawkEye 360; GPS; miniature CubeSats for education and research; and military/defense satellites.

Loading next visibility...
Identifier
52422, 2022-047AE
Orbit
SSO
Country
Flag of FRFR
Related business
Manufacturer
GOMSpace
Mission
Operational Commercial Sigint
Bus & Motor
CUBESAT 6U, Unknown motor
Mass
10 kg wet, ~10 kg dry
Launch date (UTC)
2022-05-02 (4 years ago)
Launch vehicle
ELECTRON
Launch site
Rocket Lab Launch Complex (RLLC)
Object type
Payload
Rocket body
Debris
Shape & HBR
Box, 0.1 m
Radar Cross Section
0.080 m², Medium (>0.1 m² and < 1m²)

Expand to show TLE details & history
Last TLE update: 8 hours ago

TLE from 8 hours ago
0 BRO-6
1 52422U 22047AE  25308.98545944  .00013434  00000-0  33884-3 0  9990
2 52422  97.3574  32.5976 0005633 150.2363 209.9204 15.39966057196543
Epoch: 2025-11-04T23:39Z
TLE epoch observation values (Epoch: 2025-11-04T23:39:03.695Z)
Latitude
-0.00008°
Longitude
-6.63241°
Altitude
452.661 km
Speed
7.639 km/s
True Right ascension
02h 10m 23s
True Declination
0° 00' 00"
Sunlit
Object was in full shadow at epoch
Visualization orbit readout
Latitude
Unknown
Longitude
Unknown
Altitude
Unknown
Speed
Unknown
Apparent Right ascension
Unknown
Apparent Declination
Unknown
Sunlit
N/A
Visualization observer readout
Local Sidereal Time
03:43:24
Azimuth
Unknown
Elevation
Unknown
Doppler factor
Unknown
Orbital elements
Apogee altitude
446.989 km
Perigee altitude
439.304 km
Semi-major axis
6,821.284 km
Eccentricity
0.00056
Inclination
97.3574°
RAAN
32.5976°
Arg. of periapsis
150.2363°
True anomaly
209.88822°
Mean anomaly
209.9204°
Eccentric anomaly
209.90431°
Mean motion
3.85251 °/min
Orbital period
93.45 mins
BSTAR
0.00033884
Loading maneuver chart data...
Computing Atmospheric mass density...

Documentation

Showing up to 5 results
|